La Monaccia / 12 KM

145 participants comptabilisés





Classement général

Date de la course :
Le 14/08/2016. Départ à 09:00

Class. Participant Dossard Clt / Cat Clt / Sexe Temps Moyenne Club
Class. Participant Dossard Clt / Cat Clt / Sexe Temps Moyenne Club
1Elliot POLOME4731 ES M1 M0:50:1114.35
2Nicolas BOUTTIER3281 SE M2 M0:52:2713.73CAVIGAL NICE TRAITHLON
3Waren CHALI3672 SE M3 M0:53:5113.37SAS TRI 37
4Cedric WELDIN4551 V1 M4 M0:54:3613.19
5Arthur BERTHELIN4591 CA M5 M0:55:4312.92
6Franck BERTEAU4643 SE M6 M0:55:5012.9
7Ludovic LEBRUN3992 V1 M7 M0:56:2612.76TROYES OMNISPORTS
8Mauro OPPO4511 V2 M8 M0:56:5812.64
9Jean Pierre SCIPILLITI4433 V1 M9 M0:57:1212.59
10Petro SARDA4722 ES M10 M0:59:3712.08
11Mickael DA ROCHA4134 SE M11 M0:59:4712.04
12Simon LIBINE3415 SE M12 M1:00:0012
13Laurent LOVICHI3424 V1 M13 M1:00:0511.98LA MONACCIA TRAIL
14Lea FOURNIER4561 SE F1 F1:00:3911.87
15Cedric NOUIS4675 V1 M14 M1:00:4311.86
16Ludovic PETIT4746 V1 M15 M1:00:5111.83
17FrÉdÉric FONTANA3647 V1 M16 M1:01:0211.8
18Quentin PISTACHI3943 ES M17 M1:01:5311.63I CIGNALI SARTINESI
19Patrice EUSTACHE3398 V1 M18 M1:02:1111.58ASPNM
20Robin MOIROUX4342 CA M19 M1:02:2011.55
21Michel MONTANA4469 V1 M20 M1:02:2211.54
22Jerome MANIN4261 JU M21 M1:02:2411.54
23Magalie MICHON4001 V1 F2 F1:02:3211.51TROYES OMNISPORTS
24Julien VERNALDE4526 SE M22 M1:02:4311.48
25Guillaume LE DÛ4587 SE M23 M1:03:3311.33
26Bertrand GONCALVES41910 V1 M24 M1:03:4611.29
27Najia BOUTICHE3272 V1 F3 F1:03:5311.27ASPV ATHLÉTISME
28Patrick RICO4242 V2 M25 M1:03:5411.27
29Damien PANEL4638 SE M26 M1:04:4611.12
30Carole MOISE4012 SE F4 F1:04:5311.1
31Jean Antoine SENG40311 V1 M27 M1:04:5511.09AS PORTO VECCHIO ATHLETISME
32Frederic SEYDOUX3843 V2 M28 M1:04:5811.08TEAM SEYDELEC
33Tanguy POITRIMOL4494 ES M29 M1:05:2611
34Magali OHLMANN4023 V1 F5 F1:05:2911
35Benedite BOURDUGE4151 ES F6 F1:05:4510.95CLERMONT ATHLÉRISME AUVERGNE
36Bertrand DE SAINT ESTEBAN42912 V1 M30 M1:05:4710.95
37Stevan MONDOLONI4709 SE M31 M1:05:5510.92
38Sebastien SOUTOUS40613 V1 M32 M1:06:1110.88
39Frederic CHAUVRY38910 SE M33 M1:07:3810.65RUNNING NANTEUIL
40Xavier D ARCO3364 V2 M34 M1:07:4510.63CAA
41Patrick CIMA33314 V1 M35 M1:07:4810.62
42Carole ANTONI4543 SE F7 F1:07:5010.61
43Jean Pascal BARTOLI4482 JU M36 M1:08:1510.55
44Yan ROCCHI36015 V1 M37 M1:08:3810.49BONIFACIO COURSE NATURE
45Pascal MONNIER3795 V2 M38 M1:08:4210.48ASSOCIU MUNTAGNOLU DI U FIUMORBU
46Philippe FAVRE FELIX3636 V2 M39 M1:08:5810.44
47Dany CHARLIER3737 V2 M40 M1:09:3310.35I CIGNALI SARTINESI
48Caterina Maria MISCALI4501 V2 F8 F1:09:3510.35
49Clara LUCIANI4391 JU F9 F1:09:3610.34
50Christian CASALTA39716 V1 M41 M1:09:5010.31I CIGNALI SARTINESI
51BÉrengÈre GAULT3684 SE F10 F1:10:1210.26SAS TRI 37
52Aurelie DEWAELE4664 V1 F11 F1:11:0510.13
53Alain SLAMA39617 V1 M42 M1:11:1810.1ROUEN TRIATHLON
54Martine REGNIER4102 V2 F12 F1:11:3210.07
55Alain CONSIGNY4091 V4 M43 M1:11:3710.05
56Jean Paul ANTONI4531 V3 M44 M1:11:4010.05
57Claude SOUTOUS4055 V1 F13 F1:12:199.96
58Barthelemy LUET3453 CA M45 M1:12:249.94
59Marc LUCIANI44018 V1 M46 M1:12:409.91
60Romain MAUFFROY TOUITOU34811 SE M47 M1:12:549.88PARIS RUNNING CLUB
61Christophe MONDOLONI43312 SE M48 M1:13:009.86
62Sandrine CASANOVA4166 V1 F14 F1:13:039.86TROYES OMNISPORTS
63Christelle CAMASI3937 V1 F15 F1:13:189.82
64Elise DELAHAYE3375 SE F16 F1:13:299.8I CIGNALI SARTINESI
65Lionel MILLOU35119 V1 M49 M1:13:529.751973
66Xavier NOEL38013 SE M50 M1:14:089.71
67Denis KINSINGER3922 V3 M51 M1:14:239.68
68Michele COLLET VEGEAIS4183 V2 F17 F1:15:049.59CO LECCI TRINITE
69Jerome PILOT35820 V1 M52 M1:15:119.58OSA
70Coline LEFORT3786 SE F18 F1:15:149.57FOULEE BORDEAUX
71Richard CIABRINI37414 SE M53 M1:15:449.51
72Pierre AURY46221 V1 M54 M1:15:559.48
73Dominique TECHER38622 V1 M55 M1:15:589.48AS CHELLES
74Felix ANTONIETTI4113 V3 M56 M1:16:169.44
75Victor MOUNIER3553 JU M57 M1:16:179.44
76Emmanuelle LEANDRI3658 V1 F19 F1:17:439.26I CIGNALI SARTINESI
77Brice GUILLET37615 SE M58 M1:17:469.26
78Anna SUBEIRAN3857 SE F20 F1:17:479.26
79Romain LAMBERT37016 SE M59 M1:17:539.24
80Laurent CONSTANCIAS42723 V1 M60 M1:18:279.18
81Nadine DRUNET42824 V1 M61 M1:18:289.18
82Thierry RONCIER3828 V2 M62 M1:18:499.14AS SAINT-SYLVAIN D ANJOU
83Sebastien KINSINGER42517 SE M63 M1:18:529.13
84Agnes ROBAGLIA3598 SE F21 F1:19:149.09
85Francois DELFORCE39018 SE M64 M1:19:229.07
86Franck TOULLIC4659 V2 M65 M1:19:329.05
87Serge CANITROT47110 V2 M66 M1:19:399.04
88Sophie ORSINI4689 SE F22 F1:19:489.02
89Laure TERRAZZONI40810 SE F23 F1:20:118.98
90Mimi MILANI3501 V3 F24 F1:20:208.96A FURMICULA
91Caroline GARNIER44111 SE F25 F1:20:508.91
92Julien GARNIER44219 SE M67 M1:20:528.9
93Alexandre CHARLES40720 SE M68 M1:20:568.9
94Marion BARTOT37112 SE F26 F1:20:578.89
95Cyril ECKERT37521 SE M69 M1:20:598.89
96Valentin PEYRONNET35722 SE M70 M1:21:008.89
97Vincent GERMANEAU36925 V1 M71 M1:21:148.86
98FranÇois MAUUARY42126 V1 M72 M1:21:408.82
99Caroline BUFFET44713 SE F27 F1:21:508.8
100Patrick VEGEAIS42311 V2 M73 M1:21:558.79CO LECCI TRINITE
101CÉcile MOUNIER3544 V2 F28 F1:22:458.7
102Francois CHARVE33223 SE M74 M1:23:138.65LOVE & UNITY
103Chantal SANDEAU38314 SE F29 F1:23:588.57I CIGNALI SARTINESI
104Florence COURQUIN3345 V2 F30 F1:24:098.56
105Jean Serge SAUVAGE36227 V1 M75 M1:24:168.54
106Carine EUSTACHE3389 V1 F31 F1:24:248.53
107Alain CESARI44412 V2 M76 M1:24:278.53
108Luc GUIDET45713 V2 M77 M1:24:288.52
109Jean Sebastien GHIRARDI34014 V2 M78 M1:24:538.48
110Stephanie SENG40410 V1 F32 F1:25:228.43SUD CORSE TRIATHLON
111Xavier GOUARD39115 V2 M79 M1:26:358.32
112Mathieu MARECHAL34724 SE M80 M1:26:468.3
113Veronique GIACOMETTI3986 V2 F33 F1:26:538.29CA AJACCIO
114Christine LUCIANI43811 V1 F34 F1:26:558.28
115Delphine MEDECI34912 V1 F35 F1:26:568.28
116Bruno TARIOL43616 V2 M81 M1:27:058.27
117Helene BENEDETTI3227 V2 F36 F1:27:098.26
118Ghislaine SERENI3952 V3 F37 F1:28:328.13AM DES COUREURS DE FOND
119Sonia NOBRE35613 V1 F38 F1:28:428.12C.C.CASSEL
120Agnes TERRAMONI4608 V2 F39 F1:28:508.11
121Marie Christine GRE4459 V2 F40 F1:29:218.06
122Dalila MARTINS43714 V1 F41 F1:29:228.06
123Felicien LUCCHINI3434 V3 M82 M1:29:238.06CA AJACCIO
124Nathalie RENAUD36615 SE F42 F1:29:488.02
125Christophe BERTIER32317 V2 M83 M1:30:028
126Sandrine LEMARCHAND43128 V1 M84 M1:30:067.99
127Lucile GRANUER46115 V1 F43 F1:30:087.99
128Emmanuelle CHATA41716 V1 F44 F1:30:207.97
129Marion BERTRAND32416 SE F45 F1:30:217.97
130Claire BERTUGAT32517 SE F46 F1:30:357.95
131Jean Stephane COURQUIN33518 V2 M85 M1:30:367.95
132Marie Dominique MAYER42217 V1 F47 F1:30:457.93
133Didier CASTELLI4355 V3 M86 M1:32:497.76
134Beatrice LUET34618 V1 F48 F1:34:497.59PARTICULIER
135Josiane MIORCEC3523 V3 F49 F1:34:537.59
136Cedric MICAUD43229 V1 M87 M1:37:497.36
137Francois COLONNA46925 SE M88 M1:39:157.25
138Anais ROBAGLIA3812 ES F50 F1:41:357.09
139Serge MIORCEC35319 V2 M89 M1:43:006.99
140Pascale BALENCI32119 V1 F51 F1:43:046.99I CIGNALI
141Francine LUCCHINI34410 V2 F52 F1:46:116.78
142Justine LAMOUR37718 SE F53 F1:50:096.54
143Sara BRAVO32919 SE F54 F1:51:036.48
144Xavier BOULINGUEZ32630 V1 M90 M1:51:046.48
145Aurelie BERGDOLL37220 SE F55 F1:51:176.47

TOUTES LES COURSES

Applicazione KRONO © Versione 2.3

Made in Corsica da NUBEUS SAS ©, tutti diritti riservati.